Theta_e
316 315 315 315 316 316 316 316 317 316 315 315 314 314 313 311 308 307 307 308 310 314 314 315 320 317 319 320 322 322 322 321 324 326 328 328 329 322 319 320 321 323 324 326 330 334 335 336 334 334 334 333 333 333 334 334 335 335 335 334 333 332 331 332 333 333 332 332 333 332 332 332 333 332
316 318 317 317 316 317 317 316 317 317 317 316 315 314 314 313 311 309 307 308 308 312 314 315 317 320 320 320 321 321 321 320 323 326 327 327 328 320 319 318 317 318 319 320 322 324 330 333 335 335 335 335 335 335 334 333 333 334 333 332 329 328 329 333 333 333 333 334 334 333 333 333 333 333
318 317 316 317 316 317 317 317 317 317 318 317 316 314 314 313 313 312 310 307 312 311 314 316 315 318 319 318 319 319 320 321 322 323 325 326 322 321 323 320 319 317 315 314 315 315 319 327 331 333 334 335 334 334 334 334 334 333 330 328 326 325 327 332 332 332 333 334 334 334 332 332 333 333
317 317 316 317 317 317 317 317 317 317 317 318 316 315 314 314 313 314 311 309 310 314 313 315 316 316 317 318 317 319 319 321 320 324 323 323 319 324 325 319 318 316 314 313 313 311 314 319 324 325 326 329 329 329 330 328 328 327 325 325 324 322 326 331 332 333 333 333 334 334 333 334 334 333
317 317 316 316 317 317 316 316 317 316 317 317 317 317 314 314 313 313 312 310 310 313 315 315 315 317 317 317 318 318 319 319 320 319 321 321 321 322 323 323 315 313 313 312 311 310 310 313 314 317 321 324 321 321 321 316 315 321 324 324 323 321 319 325 330 332 332 333 333 334 333 333 333 333
318 318 317 317 317 317 317 317 316 316 317 316 316 316 315 314 314 314 313 311 311 310 314 313 314 314 315 315 317 317 318 319 320 320 320 319 319 319 320 321 321 313 312 312 311 310 310 310 309 310 317 322 315 311 313 314 313 316 316 315 317 318 316 318 326 330 331 331 331 331 331 331 331 331
320 318 318 317 318 318 318 318 318 317 316 316 315 316 316 315 315 315 313 313 311 311 312 315 314 315 316 315 316 318 318 319 319 317 318 318 319 319 319 319 320 313 312 310 310 309 309 309 309 309 311 314 313 312 313 313 312 312 312 312 312 311 313 313 319 327 330 332 333 333 330 328 328 327
321 319 318 318 318 319 318 318 318 318 317 316 315 315 315 316 315 316 315 313 312 313 311 313 314 315 315 315 315 316 317 316 317 317 318 317 316 317 318 319 319 316 312 310 309 309 309 309 308 308 308 308 310 311 311 311 311 310 310 310 310 310 310 310 310 312 316 318 323 323 315 316 322 326
321 320 320 319 319 318 317 318 318 318 317 317 316 315 315 315 315 316 316 315 314 312 311 312 315 316 315 316 316 316 315 317 316 316 316 317 319 319 319 317 318 314 313 311 310 310 309 309 309 308 307 307 308 308 309 310 309 309 308 308 307 307 308 308 308 308 308 308 309 310 310 311 314 318
321 320 320 320 320 319 318 319 319 319 317 317 316 316 317 316 316 315 315 315 314 313 312 312 312 315 314 314 316 316 316 315 315 315 316 315 315 316 318 318 318 319 320 320 317 310 309 308 308 308 307 306 306 307 308 308 309 309 307 306 306 306 306 306 306 306 306 306 306 307 306 307 309 312
320 320 320 321 321 320 320 319 319 319 319 319 319 319 319 319 317 316 315 314 313 311 311 312 313 312 314 314 313 316 316 316 314 313 314 314 317 316 316 317 319 319 320 318 314 316 314 312 311 308 306 305 306 306 306 307 308 309 307 306 306 306 306 306 306 305 305 304 304 304 303 303 304 306
318 319 319 321 323 324 323 321 321 321 320 320 320 321 320 319 317 316 316 315 314 312 311 310 311 312 313 313 314 314 313 313 313 313 312 312 314 316 317 316 317 319 320 321 320 315 313 313 312 310 308 307 307 307 307 307 308 308 308 307 306 305 305 305 305 305 304 304 304 303 302 302 302 302
315 316 317 321 324 324 322 320 318 318 317 317 316 316 318 318 318 317 317 316 314 313 311 310 311 310 311 312 312 311 311 311 311 314 313 312 314 314 313 316 316 316 317 320 320 319 319 318 317 314 313 312 308 308 308 309 309 309 308 306 306 305 305 305 305 304 304 304 304 303 303 302 301 301
313 314 314 318 324 323 321 318 313 310 311 313 314 314 314 315 315 316 316 316 316 315 313 312 313 312 312 312 312 312 314 313 311 310 311 310 312 312 312 314 316 317 316 315 316 319 320 319 319 317 316 318 316 314 311 311 311 309 306 305 305 305 305 304 304 304 303 303 303 303 302 302 301 301
311 312 313 314 316 319 320 316 311 309 308 306 306 307 310 312 314 313 313 314 316 314 314 315 314 313 312 314 314 312 312 311 311 311 311 310 309 309 308 309 315 316 316 315 315 316 319 319 318 318 318 319 318 318 317 309 308 308 306 305 304 305 305 304 304 303 302 301 301 301 301 301 300 300
309 310 312 312 312 312 314 314 310 309 307 305 305 305 305 305 304 304 309 311 312 313 312 312 313 313 313 314 315 314 313 312 312 311 310 310 309 308 307 308 307 315 316 315 314 315 318 318 318 318 318 318 319 318 314 308 307 306 305 305 304 304 304 304 304 303 302 301 300 300 300 300 300 299
306 307 309 311 310 309 312 312 308 306 305 306 305 306 307 307 306 300 298 299 309 312 311 310 311 312 314 313 315 317 317 317 313 314 312 310 309 309 309 309 309 311 314 313 312 311 315 316 315 315 318 319 319 318 310 308 307 305 304 304 304 303 303 303 303 303 302 301 300 300 299 299 300 299
306 306 308 309 308 308 308 309 304 302 302 303 304 305 306 306 307 305 303 303 303 308 311 310 309 312 315 313 315 317 318 315 313 313 312 313 311 310 310 313 312 312 313 311 311 309 312 313 314 314 317 319 318 319 313 307 306 305 304 303 303 303 303 302 302 302 301 300 300 299 298 298 298 298
305 305 307 308 306 306 306 306 300 300 299 301 303 304 304 304 306 307 309 310 311 311 312 312 312 312 314 314 315 316 317 316 316 315 314 314 314 314 315 313 313 311 312 312 311 307 311 311 311 313 316 318 317 318 311 307 306 305 304 303 302 302 302 302 301 301 301 301 300 299 297 297 297 297
303 305 308 306 305 304 304 302 295 298 302 302 302 303 303 304 305 307 308 303 303 309 309 310 310 310 309 303 304 305 306 309 311 313 314 315 314 312 311 310 313 313 312 312 310 309 309 309 310 312 315 316 315 316 316 309 306 305 304 303 302 302 302 302 301 301 302 302 300 298 296 296 297 296
302 305 308 306 303 303 302 299 293 294 304 303 303 302 303 305 306 307 308 303 300 300 299 298 296 296 296 296 297 297 297 301 305 308 309 310 312 311 308 310 311 312 314 310 311 310 309 308 307 309 311 312 313 315 315 315 307 304 304 303 302 302 301 301 301 301 302 302 300 298 298 297 297 297
302 304 309 308 303 301 301 295 294 295 304 303 303 303 303 304 305 305 306 306 307 302 301 301 300 299 299 299 300 302 301 301 307 308 308 311 311 309 308 307 309 311 314 314 313 308 308 310 307 307 307 306 309 313 315 315 312 305 304 303 302 301 301 301 301 301 302 301 300 300 299 298 298 303
301 302 304 307 303 301 299 293 294 295 303 303 302 302 303 303 303 304 304 304 306 307 307 308 309 308 308 311 311 311 305 304 312 313 311 311 309 308 308 309 309 307 311 315 312 308 309 308 308 307 305 305 310 311 314 314 314 313 313 313 309 303 302 301 301 301 301 301 300 300 299 298 300 308
301 301 302 304 298 293 293 293 293 294 295 303 302 302 302 301 302 305 304 306 307 306 306 307 308 308 309 310 310 310 311 312 313 312 313 312 310 309 309 309 308 307 309 313 312 310 311 311 308 305 308 307 307 311 308 311 311 311 312 312 311 306 303 302 301 300 301 301 300 299 299 298 300 308
299 300 300 301 302 293 293 294 294 294 294 299 303 301 301 301 301 302 305 305 307 305 306 306 306 307 307 308 308 308 309 310 311 311 311 313 312 310 309 308 308 309 311 314 306 312 309 309 308 305 303 304 306 307 309 307 309 308 309 310 311 311 308 307 306 307 301 299 299 299 298 298 298 305
300 299 300 301 300 293 293 293 294 294 295 296 302 299 294 295 294 305 305 304 304 304 304 304 304 304 304 305 305 305 305 306 308 308 308 309 311 313 312 310 309 308 309 316 303 312 311 309 310 306 304 303 306 305 306 308 308 307 307 307 309 310 307 307 307 307 306 306 306 302 302 297 298 299
300 300 299 302 301 293 293 294 294 294 295 300 298 293 294 295 295 301 303 302 302 302 302 301 301 301 301 301 302 302 302 303 304 304 305 306 308 310 311 312 313 312 313 315 316 313 312 311 312 309 307 306 305 306 304 306 308 304 304 305 306 307 307 307 306 307 306 306 308 301 298 297 297 298
300 300 300 300 293 293 293 294 294 295 296 297 294 294 294 296 298 302 301 301 300 300 299 299 298 298 299 300 300 299 300 301 301 301 302 303 305 306 307 309 311 314 314 314 315 314 312 311 311 311 311 309 306 305 305 307 307 305 306 307 305 306 306 306 307 307 306 306 307 304 304 303 302 301
301 296 294 293 293 293 294 294 295 296 297 294 294 294 295 302 301 301 300 299 299 297 297 296 296 296 297 298 298 298 299 299 300 299 300 301 303 303 304 306 309 312 313 314 315 315 313 312 311 311 310 310 308 308 308 307 306 305 305 305 303 304 304 305 306 306 306 305 306 305 306 306 304 304
294 294 294 294 294 296 297 300 299 300 300 295 295 296 299 300 300 300 300 299 298 297 296 295 294 294 295 296 296 297 297 296 295 296 296 297 298 299 300 302 305 308 310 310 310 310 312 312 312 311 310 310 310 308 309 308 306 307 303 304 307 306 304 304 304 306 306 304 305 306 309 309 308 304
299 301 300 298 295 296 294 294 295 296 297 298 299 299 299 299 299 299 300 298 297 298 297 295 295 295 295 296 295 294 294 293 294 295 295 295 296 297 298 299 300 302 304 305 306 307 307 309 310 310 308 308 309 309 309 309 307 307 305 304 305 305 305 303 304 304 306 305 305 306 307 307 307 303
302 301 298 297 299 299 299 298 298 298 298 297 297 298 298 297 298 298 299 299 298 299 298 297 296 295 294 293 293 293 293 293 293 294 294 293 294 295 296 296 296 298 299 301 302 304 304 306 307 308 309 308 307 309 310 309 308 308 308 305 304 307 307 303 303 304 305 306 304 303 304 305 305 305
299 299 299 298 298 297 297 297 297 297 297 297 297 297 297 297 296 296 296 295 295 297 297 295 295 294 294 293 293 292 292 292 292 293 292 293 292 293 294 293 294 295 294 295 298 300 302 304 306 308 310 311 311 310 309 307 308 309 308 307 304 304 305 305 304 304 305 304 303 304 303 304 306 306
296 296 296 296 296 296 296 296 296 296 296 296 296 297 295 296 296 295 296 295 296 296 296 296 295 294 294 293 292 292 291 291 291 292 290 291 291 291 291 291 292 294 294 294 295 297 298 301 304 306 309 311 313 312 310 308 307 309 308 308 305 304 306 305 305 304 304 303 304 303 303 304 305 307
295 295 295 295 296 295 295 295 295 295 296 296 296 296 296 296 296 295 296 295 296 295 296 296 295 294 294 293 292 291 291 290 290 290 290 290 290 289 289 289 290 291 292 292 293 295 296 298 300 301 303 306 307 311 308 310 309 308 308 307 307 306 305 305 304 304 304 304 305 304 304 305 304 305
294 294 294 294 295 295 295 295 295 296 296 296 296 296 295 295 296 296 296 296 296 295 296 295 295 294 293 293 292 292 291 290 290 289 289 289 288 288 288 288 289 289 290 291 292 293 295 297 299 298 297 298 298 298 302 304 305 310 307 307 307 306 306 305 304 304 303 303 304 305 304 304 306 307
293 293 294 294 294 294 294 295 295 295 296 296 296 296 295 295 295 296 297 297 296 296 295 295 295 295 294 293 293 291 291 290 289 289 288 288 288 287 287 287 287 288 288 289 291 292 295 295 296 297 295 293 293 293 296 303 303 302 308 307 307 306 306 305 303 302 303 304 304 305 306 307 308 309
293 293 293 293 293 294 294 294 294 294 295 296 295 295 295 296 296 296 297 296 295 295 295 295 295 295 294 293 292 291 291 291 290 289 289 289 287 286 286 286 286 287 287 288 290 292 293 293 294 295 293 290 290 291 292 296 298 300 303 306 306 306 305 304 303 302 303 304 304 306 307 307 310 312
293 292 293 293 293 293 293 294 294 294 295 295 295 295 295 295 295 295 295 295 295 295 295 295 295 294 293 293 292 291 290 289 289 288 288 288 287 285 285 285 285 286 287 287 289 290 291 291 292 292 292 290 289 290 292 292 292 298 301 301 305 306 306 305 304 305 304 303 302 296 294 294 295 293
292 292 292 292 293 293 293 294 294 294 294 294 294 295 294 294 294 294 294 294 294 294 294 294 294 293 293 292 291 291 290 289 288 288 287 287 286 285 285 285 285 286 286 287 287 288 289 289 291 291 291 291 292 295 296 296 296 299 301 303 300 303 307 306 304 305 303 305 303 299 296 297 298 298
291 291 292 292 293 293 293 292 293 294 294 294 294 294 294 294 293 293 293 293 292 293 293 293 292 291 290 290 290 289 288 288 288 287 287 286 285 285 284 284 284 286 286 286 286 287 287 289 290 288 290 293 296 298 295 292 291 293 294 296 299 299 299 300 307 307 305 305 303 300 296 297 298 296
291 290 291 292 293 293 293 293 293 293 293 293 293 293 293 293 292 291 291 291 293 292 291 290 289 289 289 289 289 288 287 286 286 286 286 285 284 284 284 284 284 285 285 285 286 287 289 291 291 292 293 293 293 290 289 289 289 291 292 293 295 297 297 297 297 299 306 306 303 296 294 293 296 295
290 290 291 291 292 292 292 292 292 293 292 292 292 292 292 291 291 290 291 291 291 290 290 289 289 288 287 288 287 287 286 286 286 285 285 284 284 283 283 284 284 285 285 285 287 288 289 290 291 291 291 291 291 290 288 288 290 290 290 292 293 294 297 296 296 296 297 298 300 302 301 297 293 293
290 290 291 291 291 290 290 291 291 291 291 291 291 291 290 290 289 290 290 290 288 287 287 287 286 286 286 286 286 286 285 285 285 284 284 284 284 284 284 284 284 284 285 285 285 287 288 289 289 290 289 288 290 288 287 288 288 289 290 291 292 292 293 293 296 296 296 294 291 291 291 293 297 299
290 290 290 290 290 290 290 290 290 290 290 290 290 290 289 289 289 289 289 288 287 286 286 285 285 285 285 284 284 283 283 284 284 284 284 284 284 284 284 284 284 284 284 284 284 285 287 288 289 290 289 288 289 288 288 288 288 288 289 289 290 292 293 292 293 292 291 291 290 290 291 291 293 295
Wind_Speed
6 5 6 6 6 6 4 4 5 5 4 4 4 5 5 4 2 3 3 5 3 3 1 2 2 2 3 4 2 3 4 3 4 3 3 3 3 5 5 7 6 5 7 8 10 7 6 7 4 5 7 8 10 11 14 13 18 23 22 23 24 24 22 21 20 20 20 21 21 23 22 19 19 19
5 6 5 5 6 6 5 6 5 5 5 4 5 5 5 5 6 4 4 5 3 5 3 4 3 2 4 2 4 3 5 6 5 4 4 4 5 5 4 5 6 6 6 7 8 9 6 5 7 4 6 8 9 10 10 12 15 19 23 23 22 21 20 21 23 21 20 20 21 23 23 21 20 20
5 6 7 6 7 6 6 6 5 5 4 5 4 4 4 5 7 6 4 4 4 4 5 4 4 4 4 3 4 5 4 5 5 4 4 4 2 2 4 6 6 7 7 6 6 7 8 5 5 6 6 5 4 5 7 10 13 15 14 17 19 17 16 21 18 20 23 23 24 23 23 23 23 23
5 6 7 8 7 6 4 5 5 5 5 4 5 5 5 6 6 5 5 7 9 5 6 6 6 5 5 6 6 6 5 5 5 4 3 3 2 1 3 6 8 8 8 8 7 6 7 7 5 4 5 6 4 5 5 6 5 9 13 12 10 12 18 22 22 23 24 25 26 26 25 25 25 25
6 7 8 9 8 3 4 6 5 5 6 4 4 4 4 6 5 6 6 7 8 7 4 6 6 3 1 4 5 6 5 6 4 2 3 2 2 3 2 3 5 7 9 9 9 7 6 7 6 4 5 5 2 2 1 1 3 4 2 6 10 14 13 13 19 21 21 21 22 24 25 26 26 26
5 5 7 9 7 2 6 6 6 5 5 4 4 4 4 5 5 4 5 7 6 10 4 5 3 5 3 5 4 6 7 7 5 5 4 3 3 3 3 3 5 8 9 10 10 8 7 7 7 6 7 7 4 3 5 3 2 1 2 3 2 5 8 9 14 17 17 17 17 17 19 20 19 19
5 5 6 7 6 4 5 6 5 3 4 3 5 6 4 5 6 5 6 5 6 8 9 5 5 5 4 6 7 5 5 5 4 4 5 5 3 3 4 4 4 7 9 11 10 9 8 8 8 8 8 8 6 5 5 4 4 3 2 2 2 2 1 5 7 12 16 17 19 21 19 18 18 19
5 5 5 6 5 4 5 6 5 3 2 4 5 5 5 5 6 5 5 6 6 5 8 8 5 5 4 5 5 5 4 4 5 4 5 3 5 5 4 5 5 7 11 11 10 9 9 9 8 8 8 7 7 7 5 5 5 4 4 4 3 4 5 4 4 4 3 3 6 5 4 1 2 8
5 5 5 6 5 4 4 5 5 4 4 4 4 5 4 4 5 4 4 5 5 6 8 9 6 4 4 4 5 3 5 4 4 4 5 6 6 5 5 4 5 10 10 9 9 9 10 9 9 9 8 8 8 8 7 6 5 5 5 5 5 4 4 4 5 5 5 5 5 5 5 5 5 6
6 6 6 5 5 4 5 6 6 5 4 4 5 6 5 4 4 5 5 4 5 6 7 7 8 5 5 6 6 3 3 4 5 5 5 4 5 5 6 5 4 4 4 4 5 7 8 10 10 10 10 11 10 9 8 7 7 6 6 6 5 5 5 4 4 4 5 5 5 5 6 6 7 6
7 7 8 8 7 7 6 6 7 7 7 6 7 7 7 7 7 6 5 4 5 6 6 6 6 7 5 5 8 3 1 4 4 5 6 7 5 4 5 6 4 3 4 6 7 6 5 7 8 10 9 11 12 11 11 9 10 9 8 8 7 7 7 6 6 6 6 6 6 6 6 6 6 5
8 8 9 8 8 8 7 8 8 8 8 6 6 6 6 6 6 5 6 6 6 6 6 6 8 5 6 5 4 4 3 5 5 5 4 7 7 6 3 5 6 2 3 4 4 5 6 7 8 9 11 12 13 12 11 12 11 12 11 10 10 9 8 7 7 6 6 6 6 6 6 6 6 5
7 8 9 9 9 11 14 16 13 11 11 7 7 7 6 7 7 6 6 6 6 5 4 7 6 7 8 6 5 6 5 6 8 3 3 5 6 5 5 6 4 5 5 4 3 4 5 5 6 7 7 9 12 12 13 9 13 14 12 12 12 11 10 9 8 8 8 7 7 7 6 6 6 6
8 7 8 9 16 14 14 15 13 12 12 11 7 5 6 7 6 6 6 6 6 6 7 6 7 8 8 6 5 7 6 6 4 6 5 5 6 3 5 5 6 4 4 5 5 6 4 5 4 4 6 5 8 6 8 9 10 13 15 14 13 12 12 11 10 10 9 9 8 7 7 6 6 7
7 8 8 8 11 12 11 10 13 12 12 12 12 12 10 7 6 6 7 6 6 6 6 6 7 7 8 7 6 6 7 6 6 7 5 6 6 6 5 7 4 2 6 4 4 7 4 6 6 6 5 5 6 6 8 12 14 14 13 14 14 14 13 13 12 11 11 10 9 9 8 7 7 6
6 7 7 6 6 8 11 9 9 12 13 13 13 13 13 12 11 6 4 6 7 7 7 7 6 7 7 8 8 7 5 6 6 6 6 7 7 8 7 6 6 2 3 4 2 6 1 4 5 5 6 6 6 8 11 13 14 15 14 14 14 14 14 14 13 12 12 11 11 10 10 8 7 6
7 6 6 6 6 7 14 10 9 9 11 13 13 12 12 11 10 11 10 5 5 7 7 8 8 7 7 8 7 7 9 7 9 8 7 6 6 8 8 8 7 6 3 2 4 6 3 4 5 6 6 6 6 7 10 13 13 14 14 14 14 14 14 14 14 13 12 11 11 11 10 9 8 7
7 7 6 7 7 7 8 7 9 9 8 9 9 10 9 8 10 10 9 9 8 4 5 6 8 8 7 9 9 10 9 10 11 10 10 7 8 8 9 9 8 5 3 5 4 5 5 4 5 7 7 4 5 6 10 14 14 15 15 15 15 15 14 14 14 13 12 12 12 10 9 10 9 8
6 7 5 6 7 7 7 8 10 8 8 8 7 8 9 8 7 6 6 6 7 7 5 5 7 8 7 8 9 9 8 9 9 10 11 10 9 8 7 5 6 7 6 6 4 8 6 3 4 7 7 4 5 5 8 12 14 15 15 15 15 15 15 14 14 14 14 14 13 13 12 11 10 9
6 6 6 7 8 7 7 12 13 9 6 5 7 9 8 8 7 5 3 7 8 7 7 6 6 6 8 9 8 9 8 7 7 7 7 7 6 6 6 8 6 8 3 6 8 5 6 4 7 6 5 3 5 6 5 10 14 14 15 15 15 15 15 15 15 16 15 15 15 14 13 13 12 11
6 6 7 7 6 7 8 12 12 11 8 7 8 8 9 7 6 8 8 9 7 9 10 10 9 10 11 11 11 11 12 8 7 5 5 7 7 6 7 7 6 7 5 5 7 7 8 4 5 6 4 5 6 6 7 6 11 15 15 16 16 15 15 15 16 16 16 16 16 15 14 14 13 12
5 7 14 12 7 7 7 10 11 11 8 8 8 8 9 10 9 9 10 9 8 8 6 7 8 7 9 9 9 9 11 11 5 4 7 9 8 8 7 9 7 7 6 4 6 5 8 5 4 5 3 2 3 5 6 7 7 11 12 15 15 15 15 15 15 15 16 16 16 15 15 13 12 8
5 6 8 13 11 8 7 11 11 12 8 7 7 6 7 8 9 8 8 10 12 12 12 10 11 11 12 10 10 11 12 11 10 5 6 7 7 7 8 8 8 9 4 3 7 6 4 5 6 5 2 5 4 5 6 7 6 5 5 7 8 13 14 15 15 15 15 16 16 15 15 14 12 5
6 5 6 7 11 12 11 11 12 12 11 7 6 7 9 10 9 9 8 10 9 9 10 10 11 11 11 10 10 11 11 10 11 9 8 9 9 8 9 9 8 8 6 2 5 6 4 5 5 5 8 6 5 2 3 5 5 4 4 4 5 9 12 11 11 14 14 15 15 15 14 15 12 6
4 5 5 4 9 11 10 11 12 12 11 10 7 6 7 6 8 9 8 11 12 9 10 9 8 9 9 10 9 9 9 8 8 9 10 8 9 9 9 9 9 8 7 7 6 5 5 3 6 3 5 4 4 4 2 2 2 3 4 5 5 4 7 8 8 8 12 13 14 14 14 15 15 9
4 4 4 4 8 11 10 10 11 12 12 12 7 9 10 10 13 8 8 8 9 9 8 8 8 9 9 9 9 10 9 9 10 9 9 10 9 7 8 10 11 10 8 6 6 7 7 6 7 5 4 4 6 6 7 4 1 3 4 6 6 5 7 8 8 8 8 10 9 10 12 16 14 13
3 3 4 4 10 9 9 9 11 11 12 9 8 12 13 12 13 10 9 9 9 9 8 7 8 8 8 9 10 9 10 11 11 10 10 10 10 9 10 10 9 10 9 9 8 7 7 6 3 7 7 5 7 4 6 8 4 2 4 7 7 7 7 7 9 9 9 9 10 11 10 11 12 11
2 4 5 5 8 8 9 10 10 11 11 9 12 12 13 12 10 9 9 9 8 7 8 8 8 9 9 9 9 10 10 10 11 11 10 10 11 11 10 11 11 9 9 8 8 7 7 7 7 7 8 7 8 8 8 6 5 3 3 3 5 6 7 8 9 8 8 8 8 9 9 8 8 7
2 3 5 6 8 9 10 10 9 7 9 12 11 12 12 11 8 9 9 8 8 9 9 9 9 9 9 9 10 10 11 11 10 11 11 10 10 11 11 11 8 7 7 7 8 6 6 6 7 7 6 6 7 7 7 8 6 6 6 4 4 6 9 10 9 10 9 9 10 10 12 11 11 10
5 6 7 8 8 7 7 6 6 6 7 9 10 11 11 8 9 9 9 8 8 8 8 8 9 9 9 10 9 9 9 9 10 11 12 12 12 12 12 12 11 8 7 8 10 10 10 9 8 7 8 7 7 10 9 8 8 8 5 7 5 2 5 7 8 9 10 11 11 11 11 8 8 11
4 5 5 4 5 4 6 6 5 5 6 6 6 6 7 8 8 8 7 8 8 8 7 8 8 9 9 8 9 10 10 10 10 10 11 11 11 11 11 10 11 11 10 9 8 9 10 10 10 10 11 9 7 9 8 8 10 8 7 7 7 10 4 7 6 8 10 10 9 8 7 8 8 8
4 4 3 3 2 3 3 3 3 3 3 3 4 5 7 7 7 9 10 9 6 6 4 5 7 9 10 11 11 11 10 11 11 11 11 11 12 11 11 10 10 11 12 11 10 11 10 9 10 10 9 10 11 9 7 8 10 8 8 7 8 9 4 6 7 8 7 7 7 9 9 10 10 10
3 4 5 6 6 6 6 6 5 5 4 4 3 4 5 7 8 7 7 8 8 7 5 4 6 9 10 11 11 11 12 12 12 11 11 10 10 11 9 9 10 11 12 13 12 12 12 11 10 8 8 9 9 10 10 10 8 8 9 8 7 8 7 7 9 6 6 6 8 9 10 10 10 11
4 5 4 4 4 5 5 5 6 6 6 8 8 6 5 5 6 7 6 7 7 7 7 6 5 6 7 12 12 12 12 12 11 10 10 11 10 10 11 11 10 10 10 11 11 11 12 13 12 11 9 8 8 9 9 9 10 7 7 7 8 9 8 7 6 8 10 10 9 9 10 10 10 10
6 5 5 5 5 5 5 5 5 5 5 8 8 7 5 4 5 5 5 8 7 7 7 7 5 4 6 7 10 11 10 11 11 11 10 10 10 10 10 11 11 11 11 11 11 11 11 11 12 12 10 10 9 5 9 11 9 9 7 6 7 8 7 6 7 8 9 8 7 8 10 10 10 11
5 5 4 5 5 5 5 5 5 5 5 6 6 9 9 9 6 7 7 5 5 7 6 7 6 5 6 6 7 9 9 9 11 12 13 12 12 10 10 10 11 11 11 10 11 11 10 10 9 8 10 9 8 9 8 5 8 8 8 7 5 7 8 6 8 9 10 10 9 9 10 13 12 12
4 4 4 4 4 5 6 5 5 5 5 5 5 5 6 7 7 7 8 8 7 6 6 6 6 5 5 5 5 6 7 9 11 11 12 13 11 10 10 10 10 10 11 11 10 11 9 10 10 8 10 9 9 9 10 8 10 9 8 9 7 5 7 6 6 7 8 9 10 11 10 9 8 10
4 4 4 5 5 7 6 5 5 5 6 5 6 6 7 8 8 9 9 8 7 7 7 8 7 7 9 7 6 6 6 7 8 11 12 12 12 11 10 10 10 10 11 11 10 10 9 9 8 7 8 9 9 10 11 11 10 9 4 7 10 8 3 5 6 8 9 8 10 10 10 9 6 4
3 4 4 5 5 6 8 6 5 6 6 7 7 7 7 7 7 7 8 8 8 8 7 8 9 8 6 7 7 6 7 8 8 9 10 12 11 11 10 10 11 10 11 11 10 9 9 8 8 7 8 10 10 11 13 13 12 13 13 12 9 9 7 6 7 8 7 7 7 2 3 3 5 6
4 4 4 4 5 5 6 7 7 6 7 7 7 7 7 8 8 8 9 10 9 9 9 9 10 9 7 6 7 7 7 8 8 8 8 10 10 10 9 9 10 11 10 11 10 9 9 9 8 9 10 10 11 11 11 12 11 11 11 11 12 13 9 5 7 8 7 8 6 7 6 3 3 1
4 5 5 5 6 6 8 9 9 8 8 8 8 8 8 8 9 9 10 11 11 10 10 10 8 8 7 7 7 7 8 8 9 8 10 10 9 10 11 11 10 9 10 11 11 11 10 9 11 14 13 11 11 11 8 6 8 8 10 10 8 8 14 12 9 8 9 7 9 10 9 9 8 5
4 5 5 6 7 8 8 9 10 9 9 9 9 9 9 9 9 13 11 10 10 8 7 6 6 6 6 7 7 6 7 8 9 10 9 10 10 10 10 9 9 9 10 11 12 12 11 11 11 10 9 9 8 7 8 7 8 10 10 10 10 7 7 11 12 12 9 5 8 4 3 3 4 5
4 5 7 7 7 8 8 9 10 9 9 9 8 9 9 9 10 10 9 9 7 6 7 7 7 7 7 7 7 8 8 9 9 9 9 10 10 10 10 10 10 10 10 11 11 11 11 10 10 10 10 8 7 7 9 8 8 9 10 10 11 10 8 5 6 7 11 13 13 8 9 10 8 7
5 6 7 7 8 8 9 9 10 9 10 9 9 8 9 10 11 10 8 6 6 7 7 7 7 7 8 8 8 8 7 8 9 9 10 10 10 10 10 11 11 11 11 11 12 11 11 10 9 9 9 8 8 8 9 9 8 7 8 9 9 8 10 7 5 5 4 7 12 12 12 14 12 9
5 6 7 8 8 8 8 9 9 9 9 9 9 9 8 9 9 6 5 5 6 7 7 7 8 8 8 8 8 8 8 9 10 9 9 10 9 9 10 11 11 12 11 10 11 12 10 10 9 8 8 8 7 7 8 7 8 9 9 9 10 8 7 5 4 2 1 1 8 13 11 10 11 11
Wind_Direction
252 256 247 242 256 260 239 228 223 222 210 209 199 187 209 178 243 292 297 301 280 298 211 286 287 236 268 281 286 319 300 269 274 264 246 232 211 249 249 282 294 291 302 306 309 308 306 321 286 254 260 228 227 237 232 224 230 225 223 221 220 218 217 215 214 215 212 210 211 215 218 217 214 211
242 249 256 240 252 254 234 238 224 216 218 212 203 202 193 173 208 210 258 278 219 265 274 208 256 303 272 284 304 304 292 294 289 263 239 226 225 241 240 258 269 275 268 280 297 303 301 290 308 309 251 242 237 238 239 225 232 232 225 223 223 223 221 217 217 217 216 213 213 216 218 219 219 217
234 245 253 249 250 248 249 251 242 229 214 220 210 217 180 195 204 206 204 263 264 176 260 261 227 252 290 295 303 289 274 278 280 261 251 248 284 270 245 233 246 258 258 254 266 284 289 278 278 305 328 340 293 254 247 238 227 233 238 232 226 213 221 224 221 225 219 215 217 219 221 223 222 221
249 248 253 253 251 249 240 262 255 253 235 222 223 205 203 211 207 196 194 222 259 213 225 258 274 226 267 293 291 281 273 273 263 248 240 257 300 258 256 246 246 248 248 244 241 245 262 267 246 262 298 297 330 358 19 3 297 244 222 222 224 214 216 214 218 226 224 222 222 223 224 226 226 227
243 246 254 263 260 277 258 257 263 257 250 237 245 240 215 228 202 193 199 227 254 269 209 249 255 281 162 283 227 253 271 284 277 241 243 241 237 244 239 251 247 241 244 240 238 231 235 254 251 236 246 260 293 307 348 49 31 12 286 229 201 212 220 210 225 233 228 230 233 230 228 230 232 232
264 262 271 276 289 227 243 262 266 271 284 280 271 248 227 245 245 208 218 232 251 270 265 253 237 268 187 247 235 237 258 262 265 283 276 222 212 237 240 239 250 245 241 234 232 229 222 227 242 232 226 233 251 242 252 245 169 110 65 51 309 247 240 209 208 224 232 224 235 242 243 246 251 249
284 265 256 271 282 260 257 260 263 283 292 291 263 266 240 244 242 208 208 233 251 262 273 263 273 250 220 213 254 228 223 253 272 274 266 263 260 217 225 235 246 240 229 229 224 227 227 222 228 238 235 234 249 259 248 251 261 252 223 191 151 121 189 218 218 226 229 230 227 230 230 233 227 232
299 277 279 274 277 275 274 285 293 280 225 256 262 261 259 251 260 242 204 217 236 260 280 272 248 275 280 260 259 277 270 262 255 236 270 264 250 250 226 224 237 243 229 221 211 218 222 217 218 226 237 245 245 247 254 245 240 252 270 273 252 207 194 195 195 205 234 263 266 286 324 357 269 235
329 315 301 312 317 302 291 292 292 288 270 262 265 268 267 263 261 254 235 228 218 242 253 274 267 257 265 268 274 245 277 281 266 262 251 252 256 253 241 233 237 246 238 222 214 213 219 213 205 214 225 227 231 234 243 251 247 236 238 252 263 260 240 223 212 206 211 226 236 254 269 281 259 235
8 12 2 340 333 334 319 305 299 295 289 279 282 286 282 268 259 268 261 244 247 238 255 261 283 265 264 277 263 232 195 249 274 270 247 253 248 248 265 239 233 220 206 188 207 212 217 221 210 208 217 224 223 219 222 233 244 245 239 234 239 242 241 237 228 223 220 221 228 233 240 245 252 261
19 18 19 14 9 357 339 324 317 315 314 307 299 295 298 298 296 292 277 270 252 248 255 263 255 272 259 241 275 265 175 237 234 258 281 273 234 211 226 263 248 207 221 226 217 212 201 201 212 209 206 218 223 220 217 217 227 235 235 234 232 232 230 224 217 213 212 215 218 221 226 229 237 247
19 17 17 13 15 14 26 25 21 15 2 356 336 336 330 314 305 297 301 290 271 268 263 263 282 271 280 275 258 301 296 281 258 219 240 267 273 265 228 232 264 271 235 220 208 211 212 215 214 210 214 220 223 222 223 223 222 224 231 228 226 228 227 219 213 211 214 212 210 215 218 222 227 230
18 19 20 14 23 33 40 35 30 25 23 13 1 354 346 340 330 318 300 293 286 277 264 283 271 272 278 269 284 276 258 252 260 312 188 246 260 280 296 267 218 238 246 253 227 212 199 199 204 202 212 219 215 223 220 226 223 226 226 224 223 223 222 220 215 213 215 215 214 215 217 223 229 235
11 11 20 17 26 26 24 23 15 11 8 8 6 341 339 339 333 326 323 316 312 303 293 263 273 281 280 275 237 259 263 268 280 275 259 254 267 274 258 269 246 205 207 239 242 236 189 201 208 194 221 202 199 206 204 219 212 216 219 221 220 218 219 217 213 212 213 214 215 216 218 225 233 240
2 3 6 10 10 10 15 9 2 354 355 349 344 338 332 325 323 323 321 314 318 317 309 312 300 288 289 289 282 264 264 263 263 264 265 260 273 267 262 273 295 192 192 219 243 261 188 180 210 210 224 212 196 198 213 211 213 218 215 218 218 216 215 217 214 210 209 208 209 209 209 213 221 224
3 358 360 5 7 4 5 4 351 345 341 339 334 330 326 325 320 316 294 311 316 317 318 314 310 311 310 310 309 302 294 285 274 253 253 257 253 259 255 251 259 286 166 189 220 260 153 193 222 225 224 215 208 212 218 211 213 218 220 218 218 216 214 214 215 210 205 204 206 205 201 202 206 203
2 359 358 0 7 358 2 1 350 344 337 334 333 330 327 323 329 336 326 286 262 296 302 303 300 300 311 309 307 311 311 307 298 291 274 245 237 240 251 242 255 261 169 180 231 254 238 171 214 234 237 213 208 222 224 222 217 219 219 219 218 216 214 214 214 212 204 201 204 205 200 197 198 196
3 359 355 360 359 358 0 4 354 344 339 338 334 337 337 333 338 340 332 326 315 288 294 301 299 303 307 302 304 306 308 308 308 305 294 273 260 256 251 255 252 252 156 209 226 252 245 193 214 232 244 201 214 221 222 217 220 221 219 218 218 215 211 212 214 213 206 198 198 200 200 196 189 188
360 352 356 10 3 355 356 12 360 347 343 338 334 331 337 334 340 328 334 339 334 327 318 304 296 297 302 301 305 305 306 305 304 303 303 300 283 276 277 268 249 261 219 225 209 250 247 163 199 229 241 221 221 223 226 216 220 223 222 220 218 216 212 209 210 211 205 197 191 198 199 196 188 185
356 347 14 22 12 4 1 3 357 355 336 338 341 345 340 340 336 338 330 321 319 316 311 310 306 306 304 303 296 296 300 304 302 303 303 296 273 270 268 269 265 258 205 202 214 233 247 204 201 225 228 196 232 226 226 217 217 219 219 220 219 217 213 211 209 207 203 196 189 193 193 189 183 182
3 352 26 34 20 13 14 358 356 357 360 1 5 352 348 341 345 349 346 353 340 325 317 308 299 293 297 301 301 300 295 286 297 304 306 309 309 303 294 279 271 271 242 220 215 236 251 213 204 237 242 199 217 224 223 221 215 215 217 218 219 218 215 214 211 208 202 194 188 189 190 184 178 170
13 16 29 35 28 20 7 356 9 9 13 22 8 2 354 3 360 355 349 345 338 341 329 320 319 305 320 324 322 321 328 327 316 301 317 315 309 299 290 293 292 287 280 251 180 229 233 224 217 227 271 316 258 238 231 218 216 214 221 221 219 218 217 216 215 209 202 193 188 188 185 178 166 166
18 9 13 23 25 20 5 12 18 18 20 34 17 356 3 1 359 352 334 342 344 347 351 353 357 2 358 359 359 356 345 346 356 329 293 293 297 293 292 295 296 297 290 212 177 222 259 211 233 184 257 252 225 225 237 219 205 194 198 211 217 218 216 216 214 211 204 194 190 187 180 172 170 169
8 11 5 7 15 8 9 16 22 24 24 32 17 17 23 5 351 339 336 350 348 347 360 359 5 5 5 3 3 5 3 360 358 351 339 323 309 292 294 290 284 283 288 314 192 223 259 210 252 186 224 251 262 243 232 235 212 200 186 191 213 212 207 212 217 212 204 196 191 185 179 173 176 167
9 360 0 336 11 5 6 18 23 25 27 27 31 21 16 352 310 306 354 355 1 5 4 5 2 4 3 6 3 2 358 355 351 348 345 335 329 321 312 302 296 284 272 264 197 227 261 208 244 192 246 229 250 262 259 306 285 232 208 202 211 187 197 207 209 207 204 198 192 186 181 177 185 183
22 356 348 330 2 3 13 17 25 25 24 23 32 7 358 350 355 357 3 360 6 10 9 6 7 5 2 359 2 357 354 348 347 345 340 339 331 315 316 316 309 303 288 285 192 236 246 253 242 240 214 201 251 225 255 240 213 247 225 223 223 205 198 199 197 202 193 193 193 191 188 184 185 187
343 320 337 341 3 2 13 21 25 27 21 24 13 4 2 1 355 1 13 9 11 12 9 8 8 6 1 355 355 353 349 344 344 343 339 338 332 327 328 318 308 301 293 290 275 250 252 258 232 226 240 220 242 231 234 245 226 164 229 225 224 216 200 199 200 202 194 188 197 172 169 177 184 183
345 353 0 349 344 1 15 19 19 21 23 13 6 4 2 1 5 12 11 15 11 6 9 9 7 4 357 352 351 351 345 340 339 335 335 337 338 338 331 324 316 308 300 291 281 267 251 256 255 242 238 236 237 238 250 243 258 196 239 191 220 218 207 204 206 204 198 191 175 171 179 181 184 172
5 339 336 348 3 7 9 11 12 17 15 6 3 2 1 4 10 13 15 13 7 12 10 6 3 358 355 350 348 342 341 336 340 343 341 339 339 340 332 324 312 318 334 332 320 305 292 261 261 263 256 245 244 244 238 248 223 226 208 185 224 214 209 206 206 201 195 190 189 181 189 183 179 185
352 2 7 5 1 6 5 3 10 2 5 352 360 2 9 13 11 9 11 12 9 10 5 6 1 354 347 347 345 344 344 350 353 348 342 340 342 345 343 335 331 335 340 346 347 346 340 330 312 288 265 253 242 247 242 245 238 234 191 208 230 37 212 198 207 212 196 193 197 197 201 181 169 174
2 356 1 343 331 333 345 357 0 358 355 358 5 10 14 12 7 2 8 9 353 353 7 4 357 351 346 341 351 354 352 351 350 349 341 338 338 339 338 332 325 330 332 341 344 344 340 336 332 325 314 290 258 244 244 239 245 238 221 211 195 229 191 193 192 210 206 199 196 196 182 182 187 188
348 355 329 344 295 341 354 11 11 8 1 359 360 9 12 13 10 7 5 7 353 340 356 13 352 351 354 355 352 350 350 350 347 348 345 342 335 338 335 335 334 329 326 330 337 340 341 339 329 321 309 304 294 278 252 239 241 239 237 216 212 231 171 180 188 210 209 196 175 193 196 191 190 190
359 4 6 6 359 3 356 351 353 352 354 8 11 3 6 9 7 2 2 3 357 338 342 3 352 350 352 354 354 350 348 349 346 348 345 343 339 334 336 332 327 331 329 328 333 333 336 331 322 309 295 287 275 274 271 261 246 235 238 233 214 226 213 198 197 188 158 186 201 197 201 201 202 197
21 9 355 356 351 347 347 344 347 349 347 351 352 357 354 354 5 0 352 352 349 341 331 326 336 353 357 353 352 349 347 344 345 346 347 341 342 337 335 330 325 327 323 321 325 330 332 329 327 322 311 295 271 256 258 261 263 252 236 233 215 226 218 186 186 172 181 191 193 202 208 209 209 206
32 2 1 349 349 348 337 339 336 337 340 345 338 334 335 333 338 342 341 345 338 338 332 320 311 328 355 349 348 347 346 343 340 342 344 340 338 337 333 326 323 323 324 321 322 329 329 329 332 330 328 335 329 300 225 232 253 261 255 237 227 231 225 189 177 182 191 199 198 206 213 214 210 207
21 7 359 350 347 341 341 339 333 332 332 331 330 334 335 336 333 328 324 323 320 326 320 320 313 308 332 341 344 343 345 343 341 341 339 339 336 331 329 324 319 317 318 317 318 323 322 326 329 323 332 334 337 326 331 264 240 250 254 255 242 227 233 200 192 187 187 199 196 194 210 215 217 208
21 360 351 341 335 337 337 329 330 326 329 327 322 319 323 320 321 317 316 313 306 308 309 305 303 294 310 328 328 335 341 343 339 332 332 335 331 328 324 320 319 317 316 315 316 314 320 327 328 328 337 336 331 322 302 324 317 296 270 271 267 242 240 220 183 199 206 198 196 201 207 207 211 202
4 348 336 331 325 333 327 316 322 319 325 323 321 322 320 322 323 325 325 320 318 314 310 311 306 304 318 329 329 332 332 328 330 330 330 329 329 327 323 317 317 318 314 310 311 312 320 321 322 335 343 331 325 318 315 319 324 306 277 271 275 270 240 218 210 210 213 201 210 212 213 227 239 229
353 336 329 327 323 327 326 319 316 320 323 325 327 326 324 323 323 323 325 322 316 312 311 308 311 316 317 319 324 323 322 323 328 328 324 327 325 322 319 316 313 313 313 310 312 315 319 319 323 334 334 324 314 307 308 305 297 295 295 278 267 277 249 206 225 229 217 201 199 100 47 59 51 45
335 319 311 315 313 319 317 316 313 315 318 321 323 326 325 324 326 325 326 325 321 319 318 316 309 311 315 325 322 322 317 320 320 319 316 318 318 316 313 315 310 307 309 307 310 313 314 312 315 322 317 304 291 284 284 280 275 275 281 284 248 244 258 226 229 228 230 212 171 167 177 151 180 158
322 322 320 314 317 318 326 323 318 311 316 321 318 322 323 325 326 329 324 321 322 324 326 334 348 348 334 328 327 324 318 314 317 317 318 317 312 312 310 310 307 309 308 305 305 307 306 309 305 292 285 285 289 295 291 296 302 312 315 310 311 265 260 258 251 234 230 200 181 186 180 191 182 167
314 316 316 328 329 329 328 325 320 317 317 323 323 324 326 330 330 322 317 313 320 328 328 337 332 329 326 323 320 317 312 312 316 316 314 314 314 312 310 309 307 308 306 302 303 303 305 307 302 302 303 302 306 310 305 308 303 307 306 307 306 296 281 280 262 255 254 210 184 180 138 90 121 177
330 332 339 338 334 333 331 326 322 321 324 326 326 325 328 330 327 322 318 325 342 338 339 337 334 327 321 320 318 316 311 309 311 309 308 307 306 306 305 303 300 299 297 295 296 299 303 307 312 309 308 309 303 306 302 301 298 297 303 309 311 318 310 283 297 276 250 240 242 225 195 174 149 203
338 338 336 335 332 330 329 327 322 321 322 323 319 320 323 326 323 323 334 350 344 339 336 327 323 321 318 316 316 309 307 307 307 304 301 301 297 295 294 297 298 296 296 294 297 298 300 304 307 310 306 305 308 307 300 302 297 296 296 295 300 312 312 324 314 330 18 61 40 12 348 320 297 306
338 336 336 334 334 330 328 326 325 326 326 323 324 326 324 316 320 334 334 337 336 329 325 323 318 314 315 314 314 311 310 308 303 295 292 292 288 286 289 294 295 296 293 293 296 295 297 300 299 296 290 288 292 290 290 286 289 298 297 300 304 310 311 316 318 327 339 312 8 6 344 331 297 298